CAPE
0 0 0 0 0 0 0 0 0 1 1 2 4 2 0 0 0 0 0 5 0 0 0 0 0 0 0 0 0 0 0 0 0 0 0 0 0 0 0 0 0 0 0 0 0
0 0 0 0 0 0 0 0 0 0 1 1 1 1 0 0 0 0 12 1 0 0 0 0 0 0 0 0 0 0 0 0 0 0 0 0 0 0 0 0 0 0 0 0 0
0 0 0 0 0 0 0 0 0 0 2 0 0 0 0 0 0 0 0 0 0 0 0 0 0 0 0 0 0 0 0 0 0 0 0 0 0 0 0 0 0 0 0 0 0
0 0 0 0 0 0 0 0 0 0 0 0 0 0 0 0 0 0 0 0 0 0 0 0 0 0 0 0 0 0 0 0 0 0 0 0 0 0 0 0 0 0 0 0 0
0 0 0 0 0 0 0 0 0 0 0 0 0 0 0 0 0 0 0 0 0 0 0 0 0 0 0 0 0 0 0 0 0 0 0 0 0 0 0 0 0 0 0 0 0
0 0 0 0 0 0 0 0 0 0 0 0 0 0 0 0 0 0 0 0 0 0 0 0 0 0 0 0 0 0 0 0 0 0 0 0 0 0 0 0 0 0 0 0 0
0 0 0 0 0 0 0 0 0 0 0 0 0 0 0 0 0 0 0 0 0 0 0 0 0 0 0 0 0 0 0 0 0 0 0 0 0 0 0 0 0 0 0 0 1
0 0 0 0 0 0 0 0 0 0 0 0 0 0 0 0 0 0 0 0 0 0 0 0 0 0 0 0 0 0 0 0 0 0 0 0 0 0 0 0 0 0 0 0 1
0 0 0 0 0 0 0 0 0 0 0 0 0 0 0 0 0 0 0 0 0 0 0 0 0 0 0 0 0 0 0 0 0 0 0 0 0 0 0 0 0 1 0 1 2
0 0 0 0 0 0 0 0 0 0 0 0 0 0 0 0 0 0 0 0 0 0 0 0 0 0 0 0 0 0 0 0 0 0 0 0 0 0 0 0 0 0 0 1 0
0 0 0 0 0 0 0 0 0 0 0 0 0 0 0 0 0 0 0 0 0 0 0 0 0 0 0 0 0 0 0 0 0 0 0 0 0 0 0 0 0 0 0 0 1
0 0 0 0 0 0 0 0 0 0 0 0 0 0 0 0 0 0 0 0 0 0 0 0 0 0 0 0 0 0 0 0 0 0 0 0 0 0 0 0 0 1 0 0 0
0 0 0 0 0 0 0 0 0 0 0 0 0 0 0 0 0 0 0 0 0 0 0 0 0 0 0 0 0 0 0 0 0 0 0 0 0 0 0 0 0 0 0 0 0
0 0 0 0 0 0 0 0 0 0 0 0 0 0 0 0 0 0 0 0 0 0 0 0 0 0 0 0 0 0 0 0 0 0 0 0 0 0 0 0 0 0 0 0 0
0 0 0 0 0 0 0 0 0 0 0 0 0 0 0 0 0 0 0 0 0 0 0 0 0 0 0 0 0 0 0 0 0 0 0 0 0 0 0 0 0 0 0 0 0
0 0 0 0 0 0 0 0 0 0 0 0 0 0 0 0 0 0 0 0 0 0 0 0 0 0 0 0 0 0 0 0 0 0 0 0 0 0 0 0 0 0 0 0 0
0 0 0 0 0 0 0 0 0 0 0 0 0 0 0 0 0 0 0 0 0 0 0 0 0 0 0 0 0 0 0 0 0 0 0 0 0 0 0 0 0 0 0 0 0
0 0 0 0 0 0 0 0 0 0 0 0 0 0 0 0 0 0 0 0 0 0 0 0 0 0 0 0 0 0 0 0 0 0 0 0 0 0 0 0 0 0 0 0 0
0 0 0 0 0 0 0 0 0 0 0 0 0 0 0 0 0 0 0 0 0 0 0 0 0 0 0 0 0 0 0 0 0 0 0 0 0 0 0 0 0 0 0 0 0
0 0 0 0 0 0 0 0 0 0 0 0 0 0 0 0 0 0 0 0 0 0 0 0 0 0 0 0 0 0 0 0 0 0 0 0 0 0 0 0 0 0 0 0 0
0 0 0 0 0 0 0 0 0 0 0 0 0 0 0 0 0 0 0 0 0 0 0 0 0 0 0 0 0 0 0 0 0 0 0 0 0 0 0 0 0 0 0 0 0
0 0 0 0 0 0 0 0 0 0 0 0 0 0 0 0 0 0 0 0 0 0 0 0 0 0 0 0 0 0 0 0 0 0 0 0 0 0 0 0 0 0 0 0 0
0 0 0 0 0 0 0 0 0 0 0 0 0 0 0 0 0 0 0 0 0 0 0 0 0 0 0 0 0 0 0 0 0 0 0 0 0 0 0 0 0 0 0 0 0
0 0 0 0 0 0 0 0 0 0 0 0 0 0 0 0 0 0 0 0 0 0 0 0 0 0 0 0 0 0 0 0 0 0 0 0 0 0 0 0 0 0 0 0 0
0 0 0 0 0 0 0 0 0 0 0 0 0 0 0 0 0 0 0 0 0 0 0 0 0 0 0 0 0 0 0 0 0 0 0 0 0 0 0 0 0 0 0 0 0
0 0 0 0 0 0 0 0 0 0 0 0 0 0 0 0 0 0 0 0 0 0 0 0 0 0 0 0 0 0 0 0 0 0 0 0 0 0 0 0 0 0 0 0 0
0 0 0 0 0 0 0 0 0 0 0 0 0 0 0 0 0 0 0 0 0 0 0 0 0 0 0 0 0 0 0 0 0 0 0 0 0 0 0 0 0 0 0 0 0
CIN
-0 -0 -0 -0 -0 -0 -0 -0 -0 -0 -0 -0 -0 -0 -0 -0 -0 -0 -0 -1 -0 -0 -0 -0 -0 -0 -0 -0 -0 -0 -0 -0 -0 -0 -0 -0 -0 -0 -0 -0 -0 -0 -0 -0 -0
-0 -0 -0 -0 -0 -0 -0 -0 -0 -0 -0 -0 -0 -0 -0 -0 -0 -0 -0 -0 -0 -0 -0 -0 -0 -0 -0 -0 -0 -0 -0 -0 -0 -0 -0 -0 -0 -0 -0 -0 -0 -0 -0 -0 -0
-0 -0 -0 -0 -0 -0 -0 -0 -0 -0 -0 -0 -0 -0 -0 -0 -0 -0 -0 -0 -0 -0 -0 -0 -0 -0 -0 -0 -0 -0 -0 -0 -0 -0 -0 -0 -0 -0 -0 -0 -0 -0 -0 -0 -0
-0 -0 -0 -0 -0 -0 -0 -0 -0 -0 -0 -0 -0 -0 -0 -0 -0 -0 -0 -0 -0 -0 -0 -0 -0 -0 -0 -0 -0 -0 -0 -0 -0 -0 -0 -0 -0 -0 -0 -0 -0 -0 -0 -0 -0
-0 -0 -0 -0 -0 -0 -0 -0 -0 -0 -0 -0 -0 -0 -0 -0 -0 -0 -0 -0 -0 -0 -0 -0 -0 -0 -0 -0 -0 -0 -0 -0 -0 -0 -0 -0 -0 -0 -0 -0 -0 -0 -0 -0 -0
-0 -0 -0 -0 -0 -0 -0 -0 -0 -0 -0 -0 -0 -0 -0 -0 -0 -0 -0 -0 -0 -0 -0 -0 -0 -0 -0 -0 -0 -0 -0 -0 -0 -0 -0 -0 -0 -0 -0 -0 -0 -0 -0 -0 -0
-0 -0 -0 -0 -0 -0 -0 -0 -0 -0 -0 -0 -0 -0 -0 -0 -0 -0 -0 -0 -0 -0 -0 -0 -0 -0 -0 -0 -0 -0 -0 -0 -0 -0 -0 -0 -0 -0 -0 -0 -0 -0 -0 -0 -0
-0 -0 -0 -0 -0 -0 -0 -0 -0 -0 -0 -0 -0 -0 -0 -0 -0 -0 -0 -0 -0 -0 -0 -0 -0 -0 -0 -0 -0 -0 -0 -0 -0 -0 -0 -0 -0 -0 -0 -0 -0 -0 -0 -0 -0
-0 -0 -0 -0 -0 -0 -0 -0 -0 -0 -0 -0 -0 -0 -0 -0 -0 -0 -0 -0 -0 -0 -0 -0 -0 -0 -0 -0 -0 -0 -0 -0 -0 -0 -0 -0 -0 -0 -0 -0 -0 -0 -0 -0 -1
-0 -0 -0 -0 -0 -0 -0 -0 -0 -0 -0 -0 -0 -0 -0 -0 -0 -0 -0 -0 -0 -0 -0 -0 -0 -0 -0 -0 -0 -0 -0 -0 -0 -0 -0 -0 -0 -0 -0 -0 -0 -0 -0 -0 -0
-0 -0 -0 -0 -0 -0 -0 -0 -0 -0 -0 -0 -0 -0 -0 -0 -0 -0 -0 -0 -0 -0 -0 -0 -0 -0 -0 -0 -0 -0 -0 -0 -0 -0 -0 -0 -0 -0 -0 -0 -0 -0 -0 -0 -0
-0 -0 -0 -0 -0 -0 -0 -0 -0 -0 -0 -0 -0 -0 -0 -0 -0 -0 -0 -0 -0 -0 -0 -0 -0 -0 -0 -0 -0 -0 -0 -0 -0 -0 -0 -0 -0 -0 -0 -0 -0 -0 -0 -0 -0
-0 -0 -0 -0 -0 -0 -0 -0 -0 -0 -0 -0 -0 -0 -0 -0 -0 -0 -0 -0 -0 -0 -0 -0 -0 -0 -0 -0 -0 -0 -0 -0 -0 -0 -0 -0 -0 -0 -0 -0 -0 -0 -0 -0 -0
-0 -0 -0 -0 -0 -0 -0 -0 -0 -0 -0 -0 -0 -0 -0 -0 -0 -0 -0 -0 -0 -0 -0 -0 -0 -0 -0 -0 -0 -0 -0 -0 -0 -0 -0 -0 -0 -0 -0 -0 -0 -0 -0 -0 -0
-0 -0 -0 -0 -0 -0 -0 -0 -0 -0 -0 -0 -0 -0 -0 -0 -0 -0 -0 -0 -0 -0 -0 -0 -0 -0 -0 -0 -0 -0 -0 -0 -0 -0 -0 -0 -0 -0 -0 -0 -0 -0 -0 -0 -0
-0 -0 -0 -0 -0 -0 -0 -0 -0 -0 -0 -0 -0 -0 -0 -0 -0 -0 -0 -0 -0 -0 -0 -0 -0 -0 -0 -0 -0 -0 -0 -0 -0 -0 -0 -0 -0 -0 -0 -0 -0 -0 -0 -0 -0
-0 -0 -0 -0 -0 -0 -0 -0 -0 -0 -0 -0 -0 -0 -0 -0 -0 -0 -0 -0 -0 -0 -0 -0 -0 -0 -0 -0 -0 -0 -0 -0 -0 -0 -0 -0 -0 -0 -0 -0 -0 -0 -0 -0 -0
-0 -0 -0 -0 -0 -0 -0 -0 -0 -0 -0 -0 -0 -0 -0 -0 -0 -0 -0 -0 -0 -0 -0 -0 -0 -0 -0 -0 -0 -0 -0 -0 -0 -0 -0 -0 -0 -0 -0 -0 -0 -0 -0 -0 -0
-0 -0 -0 -0 -0 -0 -0 -0 -0 -0 -0 -0 -0 -0 -0 -0 -0 -0 -0 -0 -0 -0 -0 -0 -0 -0 -0 -0 -0 -0 -0 -0 -0 -0 -0 -0 -0 -0 -0 -0 -0 -0 -0 -0 -0
-0 -0 -0 -0 -0 -0 -0 -0 -0 -0 -0 -0 -0 -0 -0 -0 -0 -0 -0 -0 -0 -0 -0 -0 -0 -0 -0 -0 -0 -0 -0 -0 -0 -0 -0 -0 -0 -0 -0 -0 -0 -0 -0 -0 -0
-0 -0 -0 -0 -0 -0 -0 -0 -0 -0 -0 -0 -0 -0 -0 -0 -0 -0 -0 -0 -0 -0 -0 -0 -0 -0 -0 -0 -0 -0 -0 -0 -0 -0 -0 -0 -0 -0 -0 -0 -0 -0 -0 -0 -0
-0 -0 -0 -0 -0 -0 -0 -0 -0 -0 -0 -0 -0 -0 -0 -0 -0 -0 -0 -0 -0 -0 -0 -0 -0 -0 -0 -0 -0 -0 -0 -0 -0 -0 -0 -0 -0 -0 -0 -0 -0 -0 -0 -0 -0
-0 -0 -0 -0 -0 -0 -0 -0 -0 -0 -0 -0 -0 -0 -0 -0 -0 -0 -0 -0 -0 -0 -0 -0 -0 -0 -0 -0 -0 -0 -0 -0 -0 -0 -0 -0 -0 -0 -0 -0 -0 -0 -0 -0 -0
-0 -0 -0 -0 -0 -0 -0 -0 -0 -0 -0 -0 -0 -0 -0 -0 -0 -0 -0 -0 -0 -0 -0 -0 -0 -0 -0 -0 -0 -0 -0 -0 -0 -0 -0 -0 -0 -0 -0 -0 -0 -0 -0 -0 -0
-0 -0 -0 -0 -0 -0 -0 -0 -0 -0 -0 -0 -0 -0 -0 -0 -0 -0 -0 -0 -0 -0 -0 -0 -0 -0 -0 -0 -0 -0 -0 -0 -0 -0 -0 -0 -0 -0 -0 -0 -0 -0 -0 -0 -0
-0 -0 -0 -0 -0 -0 -0 -0 -0 -0 -0 -0 -0 -0 -0 -0 -0 -0 -0 -0 -0 -0 -0 -0 -0 -0 -0 -0 -0 -0 -0 -0 -0 -0 -0 -0 -0 -0 -0 -0 -0 -0 -0 -0 -0
-0 -0 -0 -0 -0 -0 -0 -0 -0 -0 -0 -0 -0 -0 -0 -0 -0 -0 -0 -0 -0 -0 -0 -0 -0 -0 -0 -0 -0 -0 -0 -0 -0 -0 -0 -0 -0 -0 -0 -0 -0 -0 -0 -0 -0
Wind_Speed
28 28 29 29 29 29 29 29 30 30 30 28 26 22 20 20 19 21 25 27 24 25 21 18 17 17 16 14 13 13 16 19 19 17 18 18 22 22 25 27 30 24 27 27 28
29 30 30 29 29 30 30 30 31 31 28 26 23 20 17 19 21 26 27 27 27 25 21 21 19 19 18 17 16 14 17 19 17 17 21 22 26 30 31 35 33 37 33 34 31
30 30 30 29 30 31 31 31 31 28 27 26 23 20 17 17 19 24 31 30 28 24 21 20 20 19 20 20 19 18 21 20 21 24 27 30 32 28 29 32 38 43 44 41 37
30 30 30 31 32 32 31 31 29 27 26 25 22 20 18 17 22 24 33 30 25 23 20 21 21 20 21 20 20 21 20 22 24 28 32 33 28 27 26 32 36 32 29 28 32
31 31 32 32 33 32 32 31 28 25 25 25 22 20 19 23 25 28 29 26 23 22 22 21 21 20 22 21 23 22 24 25 30 32 30 28 28 21 32 33 31 30 30 30 31
32 32 32 33 32 32 32 30 26 23 23 23 22 19 21 23 24 31 30 23 23 23 22 21 19 19 19 20 22 22 26 30 30 32 30 30 26 24 35 34 32 33 31 31 31
32 33 32 33 33 33 34 28 22 21 21 21 22 22 28 22 26 30 31 21 23 21 22 21 20 22 23 25 24 26 31 29 35 33 32 32 29 33 35 33 34 34 34 33 33
34 34 34 35 34 34 33 26 21 19 20 20 21 20 21 18 30 35 32 22 24 22 21 20 21 22 27 27 28 30 30 33 32 34 32 32 34 35 37 36 36 36 35 35 35
35 36 36 36 34 34 28 25 22 21 21 20 20 19 21 24 29 34 29 26 23 25 27 24 23 25 29 31 33 33 36 38 36 34 37 35 40 42 39 38 39 38 37 37 38
35 36 37 36 34 32 23 23 25 21 20 20 23 20 23 24 26 33 30 30 26 25 25 29 27 29 36 38 38 37 39 37 38 36 38 37 36 39 39 38 39 40 40 40 39
35 36 37 34 30 30 20 20 22 24 31 25 24 21 21 19 28 36 35 26 29 29 32 28 34 38 37 33 31 34 36 40 36 34 39 35 35 36 36 36 39 40 41 41 40
36 36 36 34 24 31 24 23 20 17 24 24 26 25 24 21 27 41 37 29 34 36 29 32 35 32 30 34 36 37 38 40 36 34 40 32 34 34 34 36 37 39 41 43 43
36 35 36 30 22 28 28 23 19 17 21 23 23 24 25 27 29 38 36 29 32 36 37 34 33 31 34 39 42 38 40 44 44 42 36 30 36 36 35 36 38 40 41 42 43
36 35 35 27 22 24 24 22 18 17 21 24 23 25 28 22 28 35 33 29 31 35 32 32 32 36 38 39 41 42 40 42 43 43 42 34 47 39 40 41 43 43 43 43 43
35 33 32 30 23 25 22 20 18 18 27 22 24 21 30 28 26 41 30 30 35 36 30 33 35 39 39 40 39 38 41 42 39 37 36 38 41 40 38 44 45 44 43 42 41
34 32 29 26 24 24 22 19 19 23 24 23 23 28 30 33 29 29 35 29 26 30 32 31 29 32 37 37 37 41 43 36 32 33 42 37 41 41 40 41 41 40 41 41 40
32 25 28 25 26 23 21 20 24 24 24 27 28 29 31 33 32 32 39 42 36 37 40 33 34 31 39 42 35 43 45 46 44 45 44 38 41 34 31 32 35 38 40 40 41
30 21 26 29 24 21 21 24 28 25 27 25 27 29 31 33 32 35 34 37 37 34 35 39 41 39 38 37 40 40 38 42 50 47 47 36 35 31 22 29 33 36 38 40 41
24 21 26 31 23 21 24 29 26 26 24 29 28 32 32 32 33 34 36 33 34 36 37 40 39 33 35 31 36 37 41 30 36 33 38 33 28 23 24 32 38 40 43 43 43
24 22 27 28 21 22 26 27 24 23 24 26 32 30 36 36 35 35 34 31 31 34 31 35 41 32 34 28 29 32 31 36 33 40 43 33 31 27 27 36 40 44 46 45 43
25 25 26 25 22 26 28 25 23 23 22 28 29 31 31 33 32 34 32 30 30 34 32 32 34 36 31 32 33 32 33 30 27 28 34 37 30 22 26 35 43 45 43 45 45
25 27 28 24 26 26 27 24 21 24 25 26 26 27 29 31 32 31 30 30 29 31 36 31 33 40 34 26 23 26 28 27 32 31 27 27 30 17 25 35 41 48 48 42 44
27 24 25 23 26 27 23 24 23 25 27 26 27 27 26 30 33 29 28 27 28 31 33 31 34 42 38 28 25 28 26 25 25 24 26 27 26 21 28 39 42 48 50 46 42
25 26 27 26 24 24 25 24 25 25 26 25 25 26 28 29 27 29 30 26 26 28 30 26 31 33 38 35 29 30 25 25 25 26 26 24 27 29 39 42 47 49 48 48 43
25 23 23 28 28 26 24 24 25 28 25 25 26 27 29 31 29 29 28 28 24 26 28 29 33 30 32 29 26 25 25 24 24 23 23 26 26 32 37 41 45 37 49 47 46
24 23 23 23 23 25 26 25 26 26 26 27 28 27 27 29 27 30 29 27 27 27 30 27 32 33 35 27 25 26 23 23 21 22 23 24 24 30 36 38 40 44 47 46 47
20 20 22 23 25 26 25 24 24 23 25 25 25 27 28 26 24 23 22 22 24 27 28 28 31 36 35 30 29 27 22 22 22 23 22 27 27 34 41 43 47 42 42 43 47
Wind_Direction
332 330 330 331 331 329 327 327 330 336 335 347 356 9 19 18 24 16 350 341 341 335 347 355 356 354 356 359 2 4 340 331 334 336 336 341 332 333 327 317 311 312 310 311 314
334 332 330 327 326 329 330 332 335 339 351 356 7 16 27 27 28 8 352 346 344 342 354 349 349 348 347 348 350 346 335 333 341 340 330 330 326 322 319 313 308 304 303 304 307
332 329 326 323 325 327 332 345 347 354 354 354 3 14 22 25 13 3 344 339 340 345 352 351 348 348 340 339 339 340 328 333 330 328 325 320 318 324 321 314 313 302 297 299 300
329 326 325 328 331 333 338 348 352 356 356 359 5 13 15 15 354 3 341 343 353 355 358 350 349 344 341 339 342 332 334 330 327 324 320 316 321 322 328 321 320 326 322 317 310
327 327 327 330 331 332 336 344 356 2 1 3 6 10 9 2 359 355 350 350 358 2 357 350 348 347 340 340 336 328 329 330 325 323 325 320 317 316 323 326 333 330 332 324 318
329 328 328 329 328 327 336 348 2 10 12 12 12 20 7 357 3 354 351 2 1 1 358 358 357 356 348 344 337 335 329 326 329 327 328 322 322 315 321 324 326 327 327 327 323
330 329 328 329 330 332 337 357 11 20 25 24 20 31 18 16 18 3 354 13 5 11 6 6 2 353 345 336 337 330 321 322 325 323 322 319 312 316 321 324 323 322 322 323 324
334 334 334 333 337 338 344 7 23 28 29 26 25 27 23 30 359 351 354 16 4 7 3 2 357 350 341 335 333 327 325 319 327 326 321 319 302 317 323 322 320 321 321 320 321
337 340 342 341 344 342 2 15 25 27 27 29 26 27 18 17 8 359 5 3 2 0 359 359 353 347 343 336 328 331 319 318 318 328 321 319 306 314 322 321 316 318 318 319 318
334 343 346 345 350 354 20 30 29 23 24 26 24 21 18 17 12 1 0 360 358 355 351 350 350 342 341 335 324 324 321 319 317 322 323 315 312 319 322 321 318 317 317 315 316
331 340 347 354 3 5 20 15 11 10 16 20 15 22 16 19 8 356 355 358 358 357 346 351 343 337 338 341 335 329 324 320 321 323 322 319 317 320 323 324 322 320 318 317 316
334 342 347 353 17 7 18 15 18 26 14 21 19 20 19 16 1 351 357 1 358 350 352 346 341 347 345 343 336 331 326 323 326 324 321 316 318 322 327 327 326 323 321 319 318
335 339 345 3 20 12 16 19 23 29 13 13 21 19 15 15 7 357 0 1 356 353 354 346 344 348 343 339 334 332 329 326 321 325 321 315 311 319 326 330 330 330 327 325 323
339 352 357 10 19 17 14 15 20 23 6 6 11 10 8 16 3 7 6 5 357 350 351 352 351 345 341 339 338 331 334 329 325 324 318 324 309 317 321 322 327 327 326 325 323
345 0 5 11 22 18 17 20 25 21 353 9 8 19 11 8 360 356 8 6 357 354 352 347 346 346 343 340 340 332 334 330 327 325 324 325 314 318 324 321 326 326 328 328 327
347 1 9 15 19 19 20 28 23 5 355 3 6 360 358 5 6 6 7 9 7 358 1 356 351 349 344 343 343 340 336 337 336 332 322 326 322 319 324 325 328 332 334 332 330
353 10 15 19 9 16 22 20 5 1 3 359 357 358 359 358 1 3 0 1 359 351 349 351 351 348 350 342 346 343 340 331 327 327 324 329 323 323 333 339 339 336 335 334 330
358 17 17 14 18 25 22 8 356 1 359 3 358 357 357 360 359 359 356 356 2 359 351 347 340 347 350 347 342 344 345 336 327 327 325 333 327 329 345 347 344 341 337 334 332
14 19 12 5 17 20 11 359 359 0 3 356 357 355 355 357 355 356 356 357 360 357 351 344 341 347 350 351 353 346 344 344 335 334 331 335 338 339 343 343 341 338 334 330 330
9 11 8 9 22 21 9 1 4 7 5 3 354 357 350 351 353 355 356 359 356 356 354 346 340 347 348 355 355 354 354 344 344 335 333 336 337 336 340 339 339 336 334 331 327
6 3 9 15 23 12 2 4 9 14 9 2 356 353 355 354 355 354 356 357 357 353 355 351 347 345 351 350 350 353 351 353 347 342 337 336 340 350 349 344 336 336 341 334 326
5 358 5 16 5 10 6 10 16 8 10 5 3 2 357 356 355 355 354 355 357 355 351 353 348 343 346 354 0 358 354 354 347 343 341 339 337 5 355 345 339 328 333 341 335
360 3 11 15 2 5 11 10 12 6 5 4 2 4 2 356 352 356 356 358 359 357 355 355 350 346 348 354 354 351 353 353 349 347 342 340 342 352 349 343 338 336 328 335 338
2 356 3 14 15 10 6 5 3 8 6 8 5 4 359 357 0 354 353 356 358 0 3 2 354 351 345 340 344 342 347 352 351 345 344 338 338 341 341 340 337 336 332 327 335
3 1 6 357 2 7 7 4 1 358 5 8 5 2 359 355 355 353 354 355 359 1 2 1 351 351 345 344 348 348 348 350 351 350 347 344 339 343 344 341 339 347 326 322 325
358 360 5 4 6 3 3 1 359 0 2 359 359 0 359 356 355 352 353 354 354 357 357 0 351 352 350 356 353 349 354 356 356 355 348 346 340 351 346 345 345 343 329 327 320
8 9 3 360 359 358 0 3 1 7 5 5 3 0 357 359 359 355 354 354 354 353 355 357 354 353 350 355 353 352 359 2 360 356 354 349 353 350 346 344 339 324 338 336 319